Location: Ammerl�gen
(47.2167°N, 9.6000°E)
Time: 23:06:26
(UTC+00:00)

Envisat - Pass Details

Date: 30 September 2021
Orbit: 764 x 766 km, 98.2° (Epoch: 20 October)

Event Time Altitude Azimuth Distance (km) Brightness Sun altitude
Rises 04:10:05 0° 18° (NNE) 3,243 6.6 -12.5°
Reaches altitude 10° 04:12:29 10° 24° (NNE) 2,312 5.9 -12.1°
Maximum altitude 04:17:25 49° 99° (E) 983 4.1 -11.3°
Drops below altitude 10° 04:22:19 10° 174° (S) 2,294 5.5 -10.5°
Sets 04:24:41 0° 180° (S) 3,216 6.2 -10.1°
